SQ6CZH-3 Weather Reports


time (UTC)temp
C
wind
direction
speed
KPH
gust
KPH
rain 1hr
cm
rain 24hr
cm
rain mn
cm
humidity
%
barometer
mb
20260504081652 21 270 1.6 3.2 0.00 0.00 0.00 49 1013.3
20260504080650 21 303 1.6 3.2 0.00 0.00 0.00 49 1013.3
20260504050616 15 45 1.6 1.6 0.00 0.00 0.00 49 1013.0
20260504045632 15 354 1.6 3.2 0.00 0.00 0.00 48 1012.9
20260504044612 15 341 1.6 3.2 0.00 0.00 0.00 48 1012.9
20260504043608 15 333 1.6 3.2 0.00 0.00 0.00 48 1012.7
20260504042606 15 336 1.6 1.6 0.00 0.00 0.00 48 1012.8
20260504041604 15 336 1.6 1.6 0.00 0.00 0.00 48 1012.6
20260504040644 16 359 1.6 1.6 0.00 0.00 0.00 48 1012.8
20260504035600 16 0 1.6 1.6 0.00 0.00 0.00 47 1012.8
20260504034640 16 45 1.6 1.6 0.00 0.00 0.00 47 1012.8
20260504033556 16 35 1.6 1.6 0.00 0.00 0.00 47 1012.8
20260504032554 16 45 1.6 1.6 0.00 0.00 0.00 47 1012.9
20260504031614 16 26 1.6 1.6 0.00 0.00 0.00 47 1012.6
20260504030552 16 0 1.6 1.6 0.00 0.00 0.00 47 1012.4
20260504025549 17 135 1.6 1.6 0.00 0.00 0.00 47 1012.3
20260504024546 17 45 1.6 1.6 0.00 0.00 0.00 46 1012.1
20260504023606 17 56 1.6 3.2 0.00 0.00 0.00 46 1012.0
20260504022543 17 52 1.6 3.2 0.00 0.00 0.00 46 1012.0
20260504021541 17 90 1.6 1.6 0.00 0.00 0.00 46 1012.0
20260504020538 17 56 1.6 1.6 0.00 0.00 0.00 46 1012.1
20260504015537 17 14 1.6 1.6 0.00 0.00 0.00 46 1012.1
20260504014534 17 90 1.6 1.6 0.00 0.00 0.00 46 1012.0
20260504013533 17 90 1.6 1.6 0.00 0.00 0.00 46 1011.9
20260504012530 17 45 1.6 1.6 0.00 0.00 0.00 46 1011.9
20260504011549 18 18 1.6 1.6 0.00 0.00 0.00 46 1011.9
20260504010526 18 0 1.6 1.6 0.00 0.00 0.00 46 1011.9
20260504005525 18 0 1.6 3.2 0.00 0.00 0.00 46 1012.0
20260504004523 18 270 1.6 1.6 0.00 0.00 0.00 46 1011.9
20260504003521 18 341 1.6 3.2 0.00 0.00 0.00 46 1011.9
20260504002519 18 347 1.6 3.2 0.00 0.00 0.00 46 1012.0
20260504001558 18 308 1.6 4.8 0.00 0.00 0.00 46 1012.1
20260504000514 18 315 1.6 6.4 0.00 0.00 0.00 46 1012.1
20260503235513 18 320 1.6 4.8 0.00 0.00 0.00 45 1012.3
20260503234520 18 318 1.6 4.8 0.00 0.00 0.00 45 1012.2
20260503233528 18 345 1.6 1.6 0.00 0.00 0.00 45 1012.3
20260503232506 18 341 1.6 1.6 0.00 0.00 0.00 45 1012.4
20260503231504 19 326 1.6 4.8 0.00 0.00 0.00 45 1012.4
20260503230504 19 312 3.2 9.7 0.00 0.00 0.00 45 1012.4
20260503225500 19 324 3.2 6.4 0.00 0.00 0.00 45 1012.4
20260503224519 20 313 3.2 8.0 0.00 0.00 0.00 45 1012.5
20260503223457 20 315 3.2 8.0 0.00 0.00 0.00 45 1012.5
20260503222454 20 312 3.2 8.0 0.00 0.00 0.00 45 1012.5
20260503221458 20 308 1.6 6.4 0.00 0.00 0.00 45 1012.8
20260503220450 20 312 1.6 6.4 0.00 0.00 0.00 45 1012.9
20260503215449 20 317 3.2 6.4 0.00 0.00 0.00 45 1012.8
20260503214446 20 310 1.6 9.7 0.00 0.00 0.00 44 1012.8
20260503213445 20 316 3.2 8.0 0.00 0.00 0.00 44 1012.8
20260503212443 20 307 1.6 9.7 0.00 0.00 0.00 44 1012.9
20260503211440 20 317 1.6 6.4 0.00 0.00 0.00 44 1012.7
20260503210438 21 308 3.2 6.4 0.00 0.00 0.00 44 1012.9
20260503205436 21 315 3.2 8.0 0.00 0.00 0.00 44 1013.0
20260503204434 21 315 1.6 8.0 0.00 0.00 0.00 44 1013.0
20260503203433 21 318 1.6 8.0 0.00 0.00 0.00 44 1013.0
20260503202452 21 317 3.2 8.0 0.00 0.00 0.00 44 1012.9
20260503201429 21 315 1.6 6.4 0.00 0.00 0.00 43 1013.1
20260503200426 21 306 1.6 4.8 0.00 0.00 0.00 43 1012.9
20260503195425 22 322 1.6 6.4 0.00 0.00 0.00 43 1013.0
20260503194423 22 315 1.6 4.8 0.00 0.00 0.00 43 1012.9
20260503193420 22 315 1.6 3.2 0.00 0.00 0.00 43 1012.8
20260503192419 22 323 1.6 3.2 0.00 0.00 0.00 43 1012.8
20260503191416 23 306 1.6 4.8 0.00 0.00 0.00 43 1012.9
20260503190414 23 299 1.6 4.8 0.00 0.00 0.00 43 1012.8
20260503185414 23 315 1.6 6.4 0.00 0.00 0.00 43 1012.6
20260503184436 23 311 1.6 6.4 0.00 0.00 0.00 43 1012.5
20260503183408 24 309 1.6 6.4 0.00 0.00 0.00 43 1012.4
20260503182426 24 315 3.2 6.4 0.00 0.00 0.00 42 1012.4
20260503181405 24 315 3.2 6.4 0.00 0.00 0.00 42 1012.5
20260503180402 25 309 3.2 8.0 0.00 0.00 0.00 42 1012.2
20260503175401 25 305 1.6 4.8 0.00 0.00 0.00 42 1012.3
20260503174358 25 315 1.6 6.4 0.00 0.00 0.00 42 1012.1
20260503173417 25 298 1.6 8.0 0.00 0.00 0.00 42 1012.2
20260503172354 25 306 1.6 6.4 0.00 0.00 0.00 42 1012.2
20260503171352 25 300 3.2 9.7 0.00 0.00 0.00 42 1012.2
20260503170410 25 304 3.2 14.5 0.00 0.00 0.00 42 1012.2
20260503150327 26 299 1.6 6.4 0.00 0.00 0.00 42 1012.8
20260503140314 26 290 1.6 3.2 0.00 0.00 0.00 42 1013.4